OPS 4682 DEB

Satellite information

Favourite Embed

Satellite Type and Status

DEBRISIN ORBIT

Key statistics

Satellite OPS 4682 DEB at a glance.

Uptime

21951

Days in orbit

Revolutions

≈ 13.0

Per day

Orbit

SSO

Sun Synchronous Orbit

Inclination

90.3

Latest

Satellite identification and parameters

Extended collection of information and parameters for OPS 4682 DEB.

Object identification

Identified? True

Debris? True

Object name: OPS 4682 DEB

International designator: 1965-027FB

Object number (NORAD): 38446

Object ID (CCSDS): 38446

Country: UNITED STATES OF AMERICA (US)

Current information (Y/N): Y

RCS size: SMALL

Orbital parameters

Period: 110.66 minutes

Inclination: 90.2691 deg

SMA: 7635.208 km

Apoapsis: 1273.322 km

Periapsis: 1240.825 km

RAAN: 17.9801 deg

Eccentricy: 0.0021281

Argument of periapsis: 49.7692 deg

Mean anomaly: 310.5289 deg

Mean motion: 13.01282043 rev/day

Mean motion (dot): -0.00000935 rev/day2

B* drag term: -0.0030756 1/REarth

Two-line elements (TLE)

Creation date: May 7, 2025, 3:14 a.m.

Reference frame: TEME

Reference center: EARTH

Epoch: May 6, 2025, 9:50 a.m. UTC

TLE line 0: 0 OPS 4682 DEB

TLE line 1: 1 38446U 65027FB 25126.41002692 -.00000935 00000-0 -30756-2 0 9997

TLE line 2: 2 38446 90.2691 17.9801 0021281 49.7692 310.5289 13.01282043534375

Live tracking on map

Real-time ground track for satellite OPS 4682 DEB.

In-orbit conjunctions

A list of the most updated potential collisions computed for object OPS 4682 DEB.

Target Orbit TCA Probability of collision Miss distance Type
SECOR 4 (EGRS 4) SSO 2024-09-14 19:49:00 0.0001066161 98.0 (m) PAYLOAD
BREEZE-KM R/B LEO 2024-08-10 09:21:34 0.0004145367 219.0 (m) ROCKET BODY

Associated space launch

Experimental satellite equipped with a nuclear power system and a cesium ion engine.

OPS 4682 DEB was lifted into orbit during the mission ‘Atlas SLV-3 Agena D | SNAPSHOT-1’, on board a Atlas SLV-3 Agena D space rocket.

The launch took place on April 3, 1965, 9:25 p.m. from Space Launch Complex 4E.

For more information about the launch, click the button.

Launch to space Atlas SLV-3 Agena D | SNAPSHOT-1
Atlas SLV-3 Agena D | SNAPSHOT-1

Agency: N/A

Status: Launch Successful

Launch date: April 3, 1965, 9:25 p.m. UTC

Rocket: Atlas SLV-3 Agena D

Launch pad: Space Launch Complex 4E

Location: Vandenberg SFB, CA, USA

...

Latest news about this satellite

There are no fresh news available about this satellite. Check back as we update our databases every day.


Newsletter sign-up

Weekly statistics, charts and insights to help you stay on top of the space industry.